Regional Weather Roundup
Issued by NWS Green Bay, WI

Home | Current Version | Previous Version | Text Only | Print | Product List | Glossary On
Versions: 1 2 3 4 5 6 7 8 9 10 11 12 13 14 15 16 17 18 19 20 21 22 23 24 25 26 27 28 29 30 31 32 33 34 35 36 37 38 39 40 41 42 43 44 45 46 47 48 49 50
000
ASUS43 KGRB 260110
RWRGRB

NORTH-CENTRAL AND NORTHEAST WISCONSIN REGIONAL WEATHER ROUNDUP
NATIONAL WEATHER SERVICE GREEN BAY WI
800 PM CDT SAT OCT 25 2014

WIZ005-009-010>012-018-019-260200-
NORTH CENTRAL WISCONSIN

CITY           SKY/WX    TMP DP  RH WIND       PRES   REMARKS
IRONWOOD       CLEAR     52  27  37 W16       29.90R
MANITOWISH WTR CLEAR     49  25  39 NW12G21   29.91R
ARBOR VITAE    CLEAR     52  24  33 NW8       29.91S
EAGLE RIVER    CLEAR     49  20  31 W9        29.90R
LAND O LAKES   CLEAR     51  23  33 NW9G16    29.90R
RHINELANDER    CLEAR     51  21  30 NW16G25   29.91R
PHILLIPS       CLEAR     50  22  33 NW7       29.94R
ANTIGO         CLEAR     48  25  40 NW10      29.91R
TOMAHAWK       CLEAR     48  20  33 CALM      29.94R
MERRILL        CLEAR     52  22  30 NW12      29.93R
$$

WIZ013-073-260200-
NORTHEAST WISCONSIN

CITY           SKY/WX    TMP DP  RH WIND       PRES   REMARKS
IRON MOUNTAIN  CLEAR     53  23  31 NW15G23   29.84R
MARINETTE      CLEAR     55  21  26 NW7       29.84R
OCONTO         CLEAR     50  27  41 W6        29.86R
$$

WIZ017-030-035>037-045-260200-
CENTRAL WISCONSIN

CITY           SKY/WX    TMP DP  RH WIND       PRES   REMARKS
MEDFORD        CLEAR     46  28  48 W7        29.95R
WAUSAU         CLEAR     50  28  42 W10       29.92R
MOSINEE        CLEAR     52  27  37 W12       29.93R
MARSHFIELD     CLEAR     50  28  42 W8        29.95R
WISC RAPIDS    CLEAR     53  27  36 W9        29.96R
STEVENS POINT  CLEAR     51  28  40 W7        29.94R
WAUPACA        CLEAR     54  29  38 W8        29.93R
SHAWANO        CLEAR     55  27  33 W6        29.89R
CLINTONVILLE   CLEAR     52  30  43 W7        29.90R
$$

WIZ038-039-048-051-260200-
FOX VALLEY

CITY           SKY/WX    TMP DP  RH WIND       PRES   REMARKS
NWS GREEN BAY  CLEAR     53  32  44 W10       29.89R
APPLETON       CLEAR     52  28  40 W12       29.91R
OSHKOSH        CLEAR     54  30  40 W6        29.92R
FOND DU LAC    CLEAR     54  28  36 W8        29.93R
$$

WIZ022-050-052-260200-
EAST CENTRAL WISCONSIN

CITY           SKY/WX    TMP DP  RH WIND       PRES   REMARKS
STURGEON BAY   CLEAR     55  30  38 NW13G21   29.86R
MANITOWOC      CLEAR     56  30  37 W14       29.88R
SHEBOYGAN      CLEAR     55  29  36 W12       29.90R
$$

LMZ563-521-522-541>543-260200-
LAKESHORE

STATION/POSITION TIME  TEMP    WIND        PRES    VSBY  WAVE
                       AIR SEA DIR/SP/G                  HT/PER
                 (UTC) (F)     (DEG/KT/KT) (MB)    (MI)  (FT/S)
SHEBOYGAN LKSHOR 0100   59 51  280/ 14/ 20 1012.6R
KEWAUNEE LKSHORE 0100   56     300/  5/  6 1010.4R
NORTHPORT PIER   0100   56     310/ 17/ 25 1009.8S
N MID LAKE BUOY  0100   54 51  300/ 16/ 19 1009.2R         3/ 4
SISTER BAY LKSHO 0000          340/ 21/ 26   N/A
STURGEON BAY CG  0000   58 52  300/ 11     1010.4      6   1
CHAMBERS ISLAND  0100   56     300/  7/ 12 1010.5R
MENOMINEE LKSHOR 0100   57     290/  9/ 14 1011.3R
$$



USA.gov is the U.S. government's official web portal to all federal, state and local government web resources and services.